FW8535 Weather Reports


Display with metric or nautical units.
time (UTC)temp
F
wind
direction
speed
MPH
gust
MPH
rain 1hr
in
rain 24hr
in
rain mn
in
humidity
%
barometer
mb
20260906152521 67 29 3.0 9.0 0.00 0.00 0.00 92 1010.2
20260906152020 67 5 3.0 8.0 0.00 0.00 0.00 92 1010.0
20260906151519 68 32 2.0 6.0 0.00 0.00 0.00 92 1010.2
20260906151021 67 349 2.0 7.0 0.00 0.00 0.00 92 1009.8
20260906150521 68 18 4.0 7.0 0.00 0.00 0.00 92 1010.0
20260906150022 68 44 2.0 9.0 0.00 0.00 0.00 92 1009.7
20260906145520 68 53 4.0 9.0 0.00 0.00 0.00 91 1009.2
20260906145119 68 31 4.0 11.0 0.00 0.00 0.00 91 1009.1
20260906144519 68 50 6.0 11.0 0.00 0.00 0.00 91 1009.0
20260906144021 68 21 4.0 9.0 0.00 0.00 0.00 92 1009.1
20260906143518 68 51 5.0 9.0 0.00 0.00 0.00 93 1009.3
20260906142519 68 41 3.0 9.0 0.00 0.00 0.00 93 1009.6
20260906142016 67 12 3.0 10.0 0.00 0.00 0.00 93 1009.3
20260906141516 67 34 4.0 11.0 0.00 0.00 0.00 93 1009.1
20260906141015 68 15 6.0 11.0 0.00 0.00 0.00 93 1009.0
20260906140519 67 342 5.0 12.0 0.00 0.00 0.00 94 1009.1
20260906140018 67 334 7.0 12.0 0.00 0.00 0.00 94 1008.6
20260906135515 67 34 6.0 12.0 0.00 0.00 0.00 94 1008.6
20260906135013 67 55 6.0 11.0 0.00 0.00 0.00 94 1009.3
20260906134513 67 45 3.0 8.0 0.00 0.00 0.00 94 1010.3
20260906134014 67 355 3.0 8.0 0.00 0.00 0.00 94 1010.2
20260906133515 67 349 3.0 6.0 0.00 0.00 0.00 94 1010.4
20260906132512 67 10 1.0 5.0 0.00 0.00 0.00 94 1010.9
20260906132011 67 5 1.0 5.0 0.00 0.00 0.00 94 1010.7
20260906131515 67 19 2.0 5.0 0.00 0.00 0.00 94 1010.8
20260906131012 67 336 0.0 5.0 0.00 0.00 0.00 94 1010.8
20260906130510 67 14 1.0 3.0 0.00 0.00 0.00 94 1010.6
20260906130020 66 276 0.0 3.0 0.00 0.00 0.00 94 1010.6
20260906125509 66 272 0.0 2.0 0.00 0.00 0.00 94 1010.3
20260906125011 66 272 0.0 3.0 0.00 0.00 0.00 94 1010.5
20260906124508 66 272 0.0 3.0 0.00 0.00 0.00 94 1010.3
20260906124008 66 272 0.0 4.0 0.00 0.00 0.00 94 1010.4
20260906123507 66 272 0.0 4.0 0.00 0.00 0.00 94 1010.4
20260906122508 66 277 1.0 4.0 0.00 0.00 0.00 94 1009.9
20260906122008 66 277 2.0 5.0 0.00 0.00 0.00 94 1010.0
20260906121510 66 78 2.0 4.0 0.00 0.00 0.00 94 1009.8
20260906121008 66 99 1.0 4.0 0.00 0.00 0.00 94 1010.1
20260906120508 66 105 1.0 5.0 0.00 0.00 0.00 94 1009.9
20260906120006 66 24 0.0 6.0 0.00 0.00 0.00 94 1009.7
20260906115507 66 40 2.0 6.0 0.00 0.00 0.00 94 1009.5
20260906115006 66 49 4.0 9.0 0.00 0.00 0.00 94 1009.7
20260906114508 66 9 4.0 9.0 0.00 0.00 0.00 94 1009.4
20260906114011 66 5 3.0 8.0 0.00 0.00 0.00 94 1009.3
20260906113506 66 36 4.0 8.0 0.00 0.00 0.00 94 1009.4
20260906112508 65 350 0.0 3.0 0.00 0.00 0.00 93 1010.4
20260906112009 65 350 0.0 3.0 0.00 0.00 0.00 93 1010.5
20260906111513 65 355 0.0 3.0 0.00 0.00 0.00 93 1010.5
20260906111007 65 355 0.0 0.0 0.00 0.00 0.00 93 1010.4
20260906110508 65 355 0.0 0.0 0.00 0.00 0.00 93 1010.3
20260906110012 65 355 0.0 2.0 0.00 0.00 0.00 93 1010.2
20260906105507 65 355 0.0 2.0 0.00 0.00 0.00 93 1010.2
20260906105005 65 355 0.0 2.0 0.00 0.00 0.00 93 1010.4
20260906104508 65 355 0.0 3.0 0.00 0.00 0.00 93 1010.3
20260906104003 65 355 0.0 3.0 0.00 0.00 0.00 93 1010.1
20260906103502 65 355 0.0 0.0 0.00 0.00 0.00 93 1010.1
20260906102505 65 355 0.0 3.0 0.00 0.00 0.00 93 1010.3
20260906102005 65 355 1.0 3.0 0.00 0.00 0.00 93 1009.9
20260906101506 65 355 0.0 1.0 0.00 0.00 0.00 93 1009.9
20260906101006 65 355 0.0 4.0 0.00 0.00 0.00 92 1009.7
20260906100505 65 355 1.0 4.0 0.00 0.00 0.00 92 1009.7
20260906100004 65 355 1.0 3.0 0.00 0.00 0.00 92 1009.4
20260906095504 65 355 0.0 3.0 0.00 0.00 0.00 92 1009.8
20260906095004 65 355 0.0 4.0 0.00 0.00 0.00 92 1009.8
20260906094503 65 355 2.0 4.0 0.00 0.00 0.00 92 1009.6
20260906094003 65 355 0.0 0.0 0.00 0.00 0.00 92 1009.9
20260906093503 66 355 0.0 2.0 0.00 0.00 0.00 92 1009.7
20260906092558 66 355 0.0 3.0 0.00 0.00 0.00 92 1009.7
20260906092059 65 355 0.0 4.0 0.00 0.00 0.00 92 1009.6
20260906091559 65 355 2.0 4.0 0.00 0.00 0.00 92 1009.2
20260906091059 65 347 0.0 3.0 0.00 0.00 0.00 91 1009.2
20260906090557 65 348 2.0 3.0 0.00 0.00 0.00 91 1009.4
20260906090108 65 347 0.0 2.0 0.00 0.00 0.00 91 1009.8
20260906090008 65 347 0.0 2.0 0.00 0.00 0.00 91 1009.7
20260906085554 65 347 1.0 2.0 0.00 0.00 0.00 91 1009.6
20260906085054 66 347 0.0 0.0 0.00 0.00 0.00 91 1009.8
20260906084554 66 347 0.0 3.0 0.00 0.00 0.00 91 1009.9
20260906084053 66 347 1.0 3.0 0.00 0.00 0.00 91 1009.7
20260906083553 66 355 1.0 3.0 0.00 0.00 0.00 90 1009.9
20260906082554 66 355 0.0 3.0 0.00 0.00 0.00 90 1009.8
20260906082057 66 355 1.0 3.0 0.00 0.00 0.00 90 1009.7
20260906081555 67 355 0.0 3.0 0.00 0.00 0.00 90 1009.6
20260906081056 67 355 0.0 3.0 0.00 0.00 0.00 89 1009.8
20260906080552 67 355 1.0 3.0 0.00 0.00 0.00 89 1009.6
20260906080051 67 355 1.0 4.0 0.00 0.00 0.00 89 1009.9
20260906075550 67 355 1.0 4.0 0.00 0.00 0.00 89 1009.8
20260906075050 68 342 1.0 4.0 0.00 0.00 0.00 89 1009.9
20260906074550 68 360 1.0 5.0 0.00 0.00 0.00 89 1009.7
20260906074049 68 360 1.0 5.0 0.00 0.00 0.00 89 1009.8
20260906073549 68 17 2.0 5.0 0.00 0.00 0.00 90 1009.9
20260906072547 68 20 2.0 5.0 0.00 0.00 0.00 89 1010.0
20260906072047 68 360 2.0 5.0 0.00 0.00 0.00 89 1010.0
20260906071557 68 9 3.0 4.0 0.00 0.00 0.00 89 1009.9
20260906071049 68 360 2.0 5.0 0.00 0.00 0.00 88 1010.0
20260906070545 68 5 2.0 5.0 0.00 0.00 0.00 88 1009.9
20260906070044 68 36 1.0 5.0 0.00 0.00 0.00 88 1010.0
20260906065545 69 45 2.0 6.0 0.00 0.00 0.00 87 1010.2
20260906065042 69 44 3.0 8.0 0.00 0.00 0.00 87 1010.1
20260906064543 69 44 3.0 8.0 0.00 0.00 0.00 87 1010.2
20260906064044 69 34 4.0 7.0 0.00 0.00 0.00 87 1010.2
20260906063544 69 38 3.0 6.0 0.00 0.00 0.00 86 1010.3
20260906062544 70 38 3.0 7.0 0.00 0.00 0.00 86 1010.1
20260906062045 70 51 3.0 7.0 0.00 0.00 0.00 86 1010.3
20260906061542 70 46 3.0 7.0 0.00 0.00 0.00 86 1010.2
20260906061041 70 45 2.0 8.0 0.00 0.00 0.00 85 1010.3
20260906060541 70 355 3.0 8.0 0.00 0.00 0.00 85 1010.3
20260906060041 70 17 3.0 6.0 0.00 0.00 0.00 85 1010.3
20260906055541 70 355 3.0 6.0 0.00 0.00 0.00 84 1010.2
20260906055041 70 13 3.0 5.0 0.00 0.00 0.00 84 1010.3
20260906054544 70 10 2.0 6.0 0.00 0.00 0.00 84 1010.2
20260906054040 71 10 3.0 6.0 0.00 0.00 0.00 84 1010.2
20260906053540 71 31 3.0 6.0 0.00 0.00 0.00 83 1010.1
20260906052538 71 14 3.0 6.0 0.00 0.00 0.00 82 1010.1
20260906052036 71 21 2.0 8.0 0.00 0.00 0.00 81 1010.0
20260906051545 71 13 3.0 8.0 0.00 0.00 0.00 81 1009.9
20260906051036 72 39 3.0 8.0 0.00 0.00 0.00 81 1010.0
20260906050539 72 39 3.0 10.0 0.00 0.00 0.00 80 1010.1
20260906050058 72 46 3.0 10.0 0.00 0.00 0.00 80 1010.0
20260906045536 72 19 3.0 8.0 0.00 0.00 0.00 80 1009.9
20260906045035 72 5 3.0 8.0 0.00 0.00 0.00 80 1010.0
20260906044536 72 11 2.0 5.0 0.00 0.00 0.00 80 1009.9
20260906044037 72 13 1.0 9.0 0.00 0.00 0.00 79 1009.9
20260906043535 72 28 3.0 9.0 0.00 0.00 0.00 79 1010.1
20260906042535 72 5 2.0 4.0 0.00 0.00 0.00 78 1009.9
20260906042035 72 360 2.0 4.0 0.00 0.00 0.00 78 1010.0
20260906041536 72 355 2.0 4.0 0.00 0.00 0.00 77 1009.9
20260906041035 72 355 3.0 5.0 0.00 0.00 0.00 77 1009.8
20260906040535 72 335 2.0 5.0 0.00 0.00 0.00 77 1009.9
20260906040041 73 346 2.0 4.0 0.00 0.00 0.00 76 1010.1
20260906035536 73 5 2.0 4.0 0.00 0.00 0.00 75 1010.0
20260906035035 73 350 0.0 4.0 0.00 0.00 0.00 75 1010.2
20260906034541 73 342 2.0 5.0 0.00 0.00 0.00 75 1010.0
20260906034037 73 322 2.0 5.0 0.00 0.00 0.00 75 1009.9
20260906033534 73 342 2.0 4.0 0.00 0.00 0.00 74 1009.9
20260906032537 74 309 2.0 5.0 0.00 0.00 0.00 73 1010.0
20260906032038 74 5 2.0 8.0 0.00 0.00 0.00 73 1010.2
20260906031542 74 355 2.0 8.0 0.00 0.00 0.00 73 1010.0
20260906031038 74 340 1.0 4.0 0.00 0.00 0.00 73 1010.0
20260906030540 74 348 1.0 3.0 0.00 0.00 0.00 73 1010.1
20260906030037 74 360 1.0 3.0 0.00 0.00 0.00 72 1010.1
20260906025537 74 355 1.0 3.0 0.00 0.00 0.00 72 1010.0
20260906025037 74 355 1.0 4.0 0.00 0.00 0.00 72 1010.0
20260906024538 74 355 2.0 5.0 0.00 0.00 0.00 72 1010.0
20260906024037 74 5 2.0 5.0 0.00 0.00 0.00 72 1010.1
20260906023540 74 355 1.0 4.0 0.00 0.00 0.00 72 1010.1
20260906022537 74 348 1.0 3.0 0.00 0.00 0.00 71 1010.1
20260906022037 74 348 0.0 3.0 0.00 0.00 0.00 70 1010.0
20260906021536 75 348 2.0 3.0 0.00 0.00 0.00 69 1010.0
20260906021036 75 348 2.0 3.0 0.00 0.00 0.00 69 1009.9
20260906020536 76 348 2.0 3.0 0.00 0.00 0.00 68 1009.9
20260906020035 76 348 2.0 3.0 0.00 0.00 0.00 68 1009.7
20260906015534 77 348 0.0 4.0 0.00 0.00 0.00 67 1009.7
20260906015033 77 347 1.0 4.0 0.00 0.00 0.00 67 1009.6
20260906014534 78 331 1.0 4.0 0.00 0.00 0.00 66 1009.3
20260906014032 78 350 1.0 4.0 0.00 0.00 0.00 65 1009.3
20260906013532 79 355 2.0 6.0 0.00 0.00 0.00 65 1009.2
20260906012525 80 5 4.0 9.0 0.00 0.00 0.00 64 1009.0
20260906012025 80 360 3.0 9.0 0.00 0.00 0.00 63 1009.0
20260906011525 81 30 4.0 8.0 0.00 0.00 0.00 62 1008.9
20260906011026 81 49 2.0 8.0 0.00 0.00 0.00 62 1008.8
20260906010525 81 16 3.0 8.0 0.00 0.00 0.00 61 1008.8
20260906010024 82 47 3.0 9.0 0.00 0.00 0.00 61 1008.7
20260906005529 82 24 5.0 9.0 0.00 0.00 0.00 60 1008.6
20260906005024 83 57 3.0 10.0 0.00 0.00 0.00 60 1008.4
20260906004524 83 32 5.0 13.0 0.00 0.00 0.00 60 1008.5
20260906004025 83 55 4.0 13.0 0.00 0.00 0.00 59 1008.4
20260906003526 84 50 5.0 10.0 0.00 0.00 0.00 59 1008.2
20260906002529 84 28 4.0 11.0 0.00 0.00 0.00 58 1008.2
20260906002030 84 53 5.0 11.0 0.00 0.00 0.00 58 1008.1
20260906001527 85 54 4.0 11.0 0.00 0.00 0.00 58 1008.1
20260906001027 85 51 5.0 14.0 0.00 0.00 0.00 58 1008.0
20260906000526 85 55 7.0 14.0 0.00 0.00 0.00 57 1008.0
20260906000030 86 49 6.0 13.0 0.00 0.00 0.00 57 1008.1
20260905235526 86 41 6.0 13.0 0.00 0.00 0.00 56 1008.0
20260905235026 86 44 4.0 12.0 0.00 0.00 0.00 56 1007.9
20260905234525 86 36 4.0 12.0 0.00 0.00 0.00 56 1008.0
20260905234026 86 50 5.0 11.0 0.00 0.00 0.00 56 1007.7
20260905233526 87 53 4.0 11.0 0.00 0.00 0.00 56 1007.8
20260905232522 87 50 6.0 11.0 0.00 0.00 0.00 55 1007.6
20260905232021 87 51 4.0 11.0 0.00 0.00 0.00 54 1007.7
20260905231521 88 48 6.0 12.0 0.00 0.00 0.00 54 1007.7
20260905231020 88 49 4.0 12.0 0.00 0.00 0.00 54 1007.6
20260905230519 88 44 4.0 10.0 0.00 0.00 0.00 54 1007.6
20260905230019 88 62 3.0 9.0 0.00 0.00 0.00 54 1007.7
20260905225520 88 53 3.0 11.0 0.00 0.00 0.00 54 1007.6
20260905225018 88 53 3.0 11.0 0.00 0.00 0.00 54 1007.5
20260905224519 88 46 3.0 11.0 0.00 0.00 0.00 53 1007.5
20260905224019 89 47 3.0 11.0 0.00 0.00 0.00 53 1007.4
20260905223519 89 48 4.0 10.0 0.00 0.00 0.00 53 1007.3
20260905222521 89 57 3.0 10.0 0.00 0.00 0.00 53 1007.4
20260905222020 89 42 5.0 10.0 0.00 0.00 0.00 52 1007.5
20260905221522 89 32 5.0 10.0 0.00 0.00 0.00 52 1007.5
20260905221021 90 34 5.0 11.0 0.00 0.00 0.00 51 1007.6
20260905220522 89 32 5.0 11.0 0.00 0.00 0.00 49 1007.5
20260905220019 90 5 5.0 10.0 0.00 0.00 0.00 49 1007.6
20260905215519 90 24 4.0 9.0 0.00 0.00 0.00 49 1007.7
20260905215018 89 31 4.0 9.0 0.00 0.00 0.00 49 1007.6
20260905214519 90 23 3.0 9.0 0.00 0.00 0.00 48 1007.5
20260905214018 90 19 6.0 9.0 0.00 0.00 0.00 48 1007.6
20260905213518 90 5 4.0 8.0 0.00 0.00 0.00 48 1007.7
20260905212519 89 24 3.0 6.0 0.00 0.00 0.00 49 1007.4
20260905212023 89 21 3.0 9.0 0.00 0.00 0.00 49 1007.6
20260905211516 89 26 3.0 11.0 0.00 0.00 0.00 50 1007.6
20260905211017 89 24 5.0 11.0 0.00 0.00 0.00 50 1007.7
20260905210519 89 19 1.0 9.0 0.00 0.00 0.00 51 1007.6
20260905210014 89 19 6.0 9.0 0.00 0.00 0.00 51 1007.7
20260905205514 89 10 1.0 10.0 0.00 0.00 0.00 51 1007.7
20260905205015 88 10 5.0 10.0 0.00 0.00 0.00 51 1007.8
20260905204514 88 10 3.0 9.0 0.00 0.00 0.00 51 1007.8
20260905204012 88 41 3.0 9.0 0.00 0.00 0.00 52 1007.8
20260905203511 88 43 2.0 6.0 0.00 0.00 0.00 52 1007.8
20260905202509 87 16 1.0 8.0 0.00 0.00 0.00 53 1007.8
20260905202011 87 11 3.0 10.0 0.00 0.00 0.00 53 1008.0
20260905201509 87 5 5.0 12.0 0.00 0.00 0.00 53 1008.1
20260905201008 88 13 4.0 12.0 0.00 0.00 0.00 53 1008.0
20260905200509 87 300 2.0 9.0 0.00 0.00 0.00 54 1008.0
20260905200008 86 299 2.0 9.0 0.00 0.00 0.00 54 1008.0
20260905195506 86 24 1.0 8.0 0.00 0.00 0.00 55 1007.9
20260905195006 86 32 4.0 8.0 0.00 0.00 0.00 55 1008.0
20260905194508 86 34 3.0 6.0 0.00 0.00 0.00 55 1008.0
20260905194005 86 43 2.0 8.0 0.00 0.00 0.00 56 1008.1
20260905193503 86 40 3.0 10.0 0.00 0.00 0.00 56 1008.0
20260905192600 86 28 6.0 10.0 0.00 0.00 0.00 56 1008.1
20260905192102 85 23 2.0 8.0 0.00 0.00 0.00 56 1008.3
20260905191613 85 27 2.0 8.0 0.00 0.00 0.00 56 1008.3
20260905191501 85 27 3.0 8.0 0.00 0.00 0.00 56 1008.3
20260905191101 85 28 1.0 9.0 0.00 0.00 0.00 57 1008.2
20260905190601 85 28 1.0 9.0 0.00 0.00 0.00 56 1008.2
20260905190056 85 34 3.0 9.0 0.00 0.00 0.00 57 1008.2
20260905185558 84 34 3.0 9.0 0.00 0.00 0.00 58 1008.2
20260905185056 84 28 4.0 8.0 0.00 0.00 0.00 57 1008.2
20260905184608 84 51 2.0 6.0 0.00 0.00 0.00 58 1008.2
20260905184054 84 55 4.0 6.0 0.00 0.00 0.00 59 1008.3
20260905183553 83 49 3.0 7.0 0.00 0.00 0.00 59 1008.3
20260905182555 82 51 0.0 6.0 0.00 0.00 0.00 61 1008.2
20260905182055 82 51 3.0 6.0 0.00 0.00 0.00 61 1008.4
20260905181550 82 52 1.0 7.0 0.00 0.00 0.00 62 1008.1
20260905181049 82 52 1.0 10.0 0.00 0.00 0.00 62 1008.3
20260905180547 81 39 3.0 11.0 0.00 0.00 0.00 63 1008.2
20260905180051 81 39 5.0 11.0 0.00 0.00 0.00 63 1008.4
20260905175547 81 76 4.0 9.0 0.00 0.00 0.00 63 1008.4
20260905175046 81 99 3.0 8.0 0.00 0.00 0.00 63 1008.4
20260905174550 81 94 4.0 8.0 0.00 0.00 0.00 63 1008.5
20260905174045 80 12 2.0 5.0 0.00 0.00 0.00 64 1008.5
20260905173544 80 9 1.0 9.0 0.00 0.00 0.00 65 1008.5
20260905172547 80 333 2.0 8.0 0.00 0.00 0.00 65 1008.6
20260905172043 80 296 3.0 8.0 0.00 0.00 0.00 65 1008.7
20260905171543 80 306 3.0 8.0 0.00 0.00 0.00 66 1008.9
20260905171042 79 259 2.0 8.0 0.00 0.00 0.00 66 1008.9
20260905170540 79 248 3.0 8.0 0.00 0.00 0.00 66 1008.8
20260905170040 79 239 1.0 8.0 0.00 0.00 0.00 67 1008.9
20260905165540 78 238 0.0 8.0 0.00 0.00 0.00 67 1008.9
20260905165038 78 244 3.0 7.0 0.00 0.00 0.00 67 1009.0
20260905164537 78 126 1.0 5.0 0.00 0.00 0.00 67 1008.8
20260905164036 78 126 1.0 7.0 0.00 0.00 0.00 67 1008.7
20260905163535 78 128 2.0 7.0 0.00 0.00 0.00 68 1008.5
20260905162539 77 129 3.0 8.0 0.00 0.00 0.00 70 1008.1
20260905162038 76 130 4.0 8.0 0.00 0.00 0.00 71 1008.0
20260905161536 76 133 5.0 9.0 0.00 0.00 0.00 71 1007.9
20260905161036 76 135 4.0 9.0 0.00 0.00 0.00 71 1008.1
20260905160533 76 112 3.0 7.0 0.00 0.00 0.00 72 1008.1
20260905160046 76 112 3.0 6.0 0.00 0.00 0.00 71 1007.9
20260905155531 75 111 1.0 6.0 0.00 0.00 0.00 73 1008.0
20260905155031 75 122 3.0 6.0 0.00 0.00 0.00 73 1008.0
20260905154529 75 87 2.0 8.0 0.00 0.00 0.00 73 1008.0
20260905154029 74 67 2.0 8.0 0.00 0.00 0.00 75 1007.9
20260905153526 73 116 4.0 8.0 0.00 0.00 0.00 76 1007.8